Year,Month,Day,Hour,Minute,Value (Times are PST for temperature in C)
2013,10,23,00,00,4.80
2013,10,23,00,01,4.80
2013,10,23,00,02,4.70
2013,10,23,00,03,4.70
2013,10,23,00,04,4.70
2013,10,23,00,05,4.70
2013,10,23,00,06,4.70
2013,10,23,00,07,4.70
2013,10,23,00,08,4.70
2013,10,23,00,09,4.70
2013,10,23,00,10,4.70
2013,10,23,00,11,4.60
2013,10,23,00,12,4.60
2013,10,23,00,13,4.60
2013,10,23,00,14,4.60
2013,10,23,00,15,4.60
2013,10,23,00,16,4.60
2013,10,23,00,17,4.60
2013,10,23,00,18,4.60
2013,10,23,00,19,4.60
2013,10,23,00,20,4.60
2013,10,23,00,21,4.60
2013,10,23,00,22,4.50
2013,10,23,00,23,4.50
2013,10,23,00,24,4.50
2013,10,23,00,25,4.50
2013,10,23,00,26,4.50
2013,10,23,00,27,4.60
2013,10,23,00,28,4.60
2013,10,23,00,29,4.60
2013,10,23,00,30,4.60
2013,10,23,00,31,4.60
2013,10,23,00,32,4.60
2013,10,23,00,33,4.60
2013,10,23,00,34,4.60
2013,10,23,00,35,4.60
2013,10,23,00,36,4.60
2013,10,23,00,37,4.60
2013,10,23,00,38,4.60
2013,10,23,00,39,4.60
2013,10,23,00,40,4.60
2013,10,23,00,41,4.60
2013,10,23,00,42,4.60
2013,10,23,00,43,4.60
2013,10,23,00,44,4.60
2013,10,23,00,45,4.60
2013,10,23,00,46,4.60
2013,10,23,00,47,4.60
2013,10,23,00,48,4.60
2013,10,23,00,49,4.60
2013,10,23,00,50,4.60
2013,10,23,00,51,4.60
2013,10,23,00,52,4.60
2013,10,23,00,53,4.60
2013,10,23,00,54,4.50
2013,10,23,00,55,4.50
2013,10,23,00,56,4.50
2013,10,23,00,57,4.50
2013,10,23,00,58,4.50
2013,10,23,00,59,4.40
2013,10,23,01,00,4.40
2013,10,23,01,01,4.40
2013,10,23,01,02,4.40
2013,10,23,01,03,4.40
2013,10,23,01,04,4.40
2013,10,23,01,05,4.40
2013,10,23,01,06,4.30
2013,10,23,01,07,4.30
2013,10,23,01,08,4.30
2013,10,23,01,09,4.30
2013,10,23,01,10,4.30
2013,10,23,01,11,4.30
2013,10,23,01,12,4.20
2013,10,23,01,13,4.20
2013,10,23,01,14,4.20
2013,10,23,01,15,4.20
2013,10,23,01,16,4.20
2013,10,23,01,17,4.20
2013,10,23,01,18,4.20
2013,10,23,01,19,4.20
2013,10,23,01,20,4.10
2013,10,23,01,21,4.10
2013,10,23,01,22,4.10
2013,10,23,01,23,4.10
2013,10,23,01,24,4.10
2013,10,23,01,25,4.10
2013,10,23,01,26,4.10
2013,10,23,01,27,4.10
2013,10,23,01,28,4.10
2013,10,23,01,29,4.10
2013,10,23,01,30,4.10
2013,10,23,01,31,4.10
2013,10,23,01,32,4.10
2013,10,23,01,33,4.10
2013,10,23,01,34,4.10
2013,10,23,01,35,4.10
2013,10,23,01,36,4.10
2013,10,23,01,37,4.10
2013,10,23,01,38,4.10
2013,10,23,01,39,4.10
2013,10,23,01,40,4.10
2013,10,23,01,41,4.20
2013,10,23,01,42,4.20
2013,10,23,01,43,4.20
2013,10,23,01,44,4.20
2013,10,23,01,45,4.30
2013,10,23,01,46,4.30
2013,10,23,01,47,4.30
2013,10,23,01,48,4.30
2013,10,23,01,49,4.30
2013,10,23,01,50,4.30
2013,10,23,01,51,4.30
2013,10,23,01,52,4.30
2013,10,23,01,53,4.30
2013,10,23,01,54,4.30
2013,10,23,01,55,4.30
2013,10,23,01,56,4.30
2013,10,23,01,57,4.30
2013,10,23,01,58,4.30
2013,10,23,01,59,4.30
2013,10,23,02,00,4.30
2013,10,23,02,01,4.30
2013,10,23,02,02,4.20
2013,10,23,02,03,4.20
2013,10,23,02,04,4.20
2013,10,23,02,05,4.20
2013,10,23,02,06,4.20
2013,10,23,02,07,4.20
2013,10,23,02,08,4.10
2013,10,23,02,09,4.10
2013,10,23,02,10,4.10
2013,10,23,02,11,4.10
2013,10,23,02,12,4.10
2013,10,23,02,13,4.10
2013,10,23,02,14,4.10
2013,10,23,02,15,4.00
2013,10,23,02,16,4.00
2013,10,23,02,17,4.00
2013,10,23,02,18,4.00
2013,10,23,02,19,3.90
2013,10,23,02,20,3.90
2013,10,23,02,21,3.90
2013,10,23,02,22,3.90
2013,10,23,02,23,3.90
2013,10,23,02,24,3.90
2013,10,23,02,25,3.90
2013,10,23,02,26,3.90
2013,10,23,02,27,3.90
2013,10,23,02,28,3.90
2013,10,23,02,29,3.90
2013,10,23,02,30,3.90
2013,10,23,02,31,3.90
2013,10,23,02,32,3.90
2013,10,23,02,33,3.90
2013,10,23,02,34,3.90
2013,10,23,02,35,3.80
2013,10,23,02,36,3.80
2013,10,23,02,37,3.80
2013,10,23,02,38,3.80
2013,10,23,02,39,3.80
2013,10,23,02,40,3.80
2013,10,23,02,41,3.80
2013,10,23,02,42,3.80
2013,10,23,02,43,3.80
2013,10,23,02,44,3.70
2013,10,23,02,45,3.70
2013,10,23,02,46,3.70
2013,10,23,02,47,3.70
2013,10,23,02,48,3.70
2013,10,23,02,49,3.70
2013,10,23,02,50,3.60
2013,10,23,02,51,3.60
2013,10,23,02,52,3.60
2013,10,23,02,53,3.60
2013,10,23,02,54,3.60
2013,10,23,02,55,3.60
2013,10,23,02,56,3.60
2013,10,23,02,57,3.60
2013,10,23,02,58,3.60
2013,10,23,02,59,3.60
2013,10,23,03,00,3.60
2013,10,23,03,01,3.60
2013,10,23,03,02,3.60
2013,10,23,03,03,3.60
2013,10,23,03,04,3.60
2013,10,23,03,05,3.60
2013,10,23,03,06,3.60
2013,10,23,03,07,3.60
2013,10,23,03,08,3.60
2013,10,23,03,09,3.60
2013,10,23,03,10,3.60
2013,10,23,03,11,3.60
2013,10,23,03,12,3.60
2013,10,23,03,13,3.60
2013,10,23,03,14,3.60
2013,10,23,03,15,3.60
2013,10,23,03,16,3.60
2013,10,23,03,17,3.60
2013,10,23,03,18,3.60
2013,10,23,03,19,3.60
2013,10,23,03,20,3.60
2013,10,23,03,21,3.60
2013,10,23,03,22,3.60
2013,10,23,03,23,3.50
2013,10,23,03,24,3.50
2013,10,23,03,25,3.50
2013,10,23,03,26,3.50
2013,10,23,03,27,3.50
2013,10,23,03,28,3.50
2013,10,23,03,29,3.50
2013,10,23,03,30,3.50
2013,10,23,03,31,3.40
2013,10,23,03,32,3.40
2013,10,23,03,33,3.40
2013,10,23,03,34,3.40
2013,10,23,03,35,3.40
2013,10,23,03,36,3.40
2013,10,23,03,37,3.40
2013,10,23,03,38,3.40
2013,10,23,03,39,3.40
2013,10,23,03,40,3.40
2013,10,23,03,41,3.30
2013,10,23,03,42,3.30
2013,10,23,03,43,3.30
2013,10,23,03,44,3.30
2013,10,23,03,45,3.30
2013,10,23,03,46,3.30
2013,10,23,03,47,3.30
2013,10,23,03,48,3.30
2013,10,23,03,49,3.30
2013,10,23,03,50,3.30
2013,10,23,03,51,3.30
2013,10,23,03,52,3.30
2013,10,23,03,53,3.30
2013,10,23,03,54,3.30
2013,10,23,03,55,3.30
2013,10,23,03,56,3.30
2013,10,23,03,57,3.30
2013,10,23,03,58,3.30
2013,10,23,03,59,3.30
2013,10,23,04,00,3.30
2013,10,23,04,01,3.30
2013,10,23,04,02,3.30
2013,10,23,04,03,3.30
2013,10,23,04,04,3.30
2013,10,23,04,05,3.30
2013,10,23,04,06,3.30
2013,10,23,04,07,3.30
2013,10,23,04,08,3.30
2013,10,23,04,09,3.30
2013,10,23,04,10,3.30
2013,10,23,04,11,3.30
2013,10,23,04,12,3.30
2013,10,23,04,13,3.30
2013,10,23,04,14,3.30
2013,10,23,04,15,3.30
2013,10,23,04,16,3.30
2013,10,23,04,17,3.30
2013,10,23,04,18,3.30
2013,10,23,04,19,3.30
2013,10,23,04,20,3.30
2013,10,23,04,21,3.40
2013,10,23,04,22,3.40
2013,10,23,04,23,3.40
2013,10,23,04,24,3.40
2013,10,23,04,25,3.40
2013,10,23,04,26,3.40
2013,10,23,04,27,3.40
2013,10,23,04,28,3.40
2013,10,23,04,29,3.40
2013,10,23,04,30,3.40
2013,10,23,04,31,3.40
2013,10,23,04,32,3.40
2013,10,23,04,33,3.40
2013,10,23,04,34,3.40
2013,10,23,04,35,3.40
2013,10,23,04,36,3.40
2013,10,23,04,37,3.40
2013,10,23,04,38,3.40
2013,10,23,04,39,3.40
2013,10,23,04,40,3.40
2013,10,23,04,41,3.40
2013,10,23,04,42,3.40
2013,10,23,04,43,3.40
2013,10,23,04,44,3.40
2013,10,23,04,45,3.40
2013,10,23,04,46,3.40
2013,10,23,04,47,3.40
2013,10,23,04,48,3.40
2013,10,23,04,49,3.40
2013,10,23,04,50,3.40
2013,10,23,04,51,3.40
2013,10,23,04,52,3.40
2013,10,23,04,53,3.40
2013,10,23,04,54,3.40
2013,10,23,04,55,3.40
2013,10,23,04,56,3.40
2013,10,23,04,57,3.40
2013,10,23,04,58,3.40
2013,10,23,04,59,3.40
2013,10,23,05,00,3.40
2013,10,23,05,01,3.40
2013,10,23,05,02,3.40
2013,10,23,05,03,3.40
2013,10,23,05,04,3.40
2013,10,23,05,05,3.40
2013,10,23,05,06,3.40
2013,10,23,05,07,3.40
2013,10,23,05,08,3.40
2013,10,23,05,09,3.40
2013,10,23,05,10,3.40
2013,10,23,05,11,3.40
2013,10,23,05,12,3.40
2013,10,23,05,13,3.40
2013,10,23,05,14,3.40
2013,10,23,05,15,3.40
2013,10,23,05,16,3.40
2013,10,23,05,17,3.40
2013,10,23,05,18,3.40
2013,10,23,05,19,3.30
2013,10,23,05,20,3.30
2013,10,23,05,21,3.30
2013,10,23,05,22,3.30
2013,10,23,05,23,3.30
2013,10,23,05,24,3.30
2013,10,23,05,25,3.30
2013,10,23,05,26,3.30
2013,10,23,05,27,3.30
2013,10,23,05,28,3.30
2013,10,23,05,29,3.20
2013,10,23,05,30,3.20
2013,10,23,05,31,3.20
2013,10,23,05,32,3.20
2013,10,23,05,33,3.20
2013,10,23,05,34,3.20
2013,10,23,05,35,3.20
2013,10,23,05,36,3.20
2013,10,23,05,37,3.20
2013,10,23,05,38,3.20
2013,10,23,05,39,3.20
2013,10,23,05,40,3.20
2013,10,23,05,41,3.20
2013,10,23,05,42,3.20
2013,10,23,05,43,3.10
2013,10,23,05,44,3.10
2013,10,23,05,45,3.10
2013,10,23,05,46,3.10
2013,10,23,05,47,3.10
2013,10,23,05,48,3.10
2013,10,23,05,49,3.10
2013,10,23,05,50,3.10
2013,10,23,05,51,3.10
2013,10,23,05,52,3.10
2013,10,23,05,53,3.10
2013,10,23,05,54,3.10
2013,10,23,05,55,3.10
2013,10,23,05,56,3.10
2013,10,23,05,57,3.10
2013,10,23,05,58,3.10
2013,10,23,05,59,3.10
2013,10,23,06,00,3.10
2013,10,23,06,01,3.10
2013,10,23,06,02,3.10
2013,10,23,06,03,3.00
2013,10,23,06,04,3.10
2013,10,23,06,05,3.10
2013,10,23,06,06,3.10
2013,10,23,06,07,3.00
2013,10,23,06,08,3.00
2013,10,23,06,09,3.10
2013,10,23,06,10,3.00
2013,10,23,06,11,3.10
2013,10,23,06,12,3.10
2013,10,23,06,13,3.10
2013,10,23,06,14,3.10
2013,10,23,06,15,3.10
2013,10,23,06,16,3.10
2013,10,23,06,17,3.10
2013,10,23,06,18,3.10
2013,10,23,06,19,3.10
2013,10,23,06,20,3.10
2013,10,23,06,21,3.10
2013,10,23,06,22,3.10
2013,10,23,06,23,3.10
2013,10,23,06,24,3.00
2013,10,23,06,25,3.00
2013,10,23,06,26,3.00
2013,10,23,06,27,3.00
2013,10,23,06,28,3.00
2013,10,23,06,29,3.00
2013,10,23,06,30,3.00
2013,10,23,06,31,3.00
2013,10,23,06,32,3.00
2013,10,23,06,33,3.00
2013,10,23,06,34,3.00
2013,10,23,06,35,3.00
2013,10,23,06,36,3.00
2013,10,23,06,37,2.90
2013,10,23,06,38,2.90
2013,10,23,06,39,2.90
2013,10,23,06,40,2.90
2013,10,23,06,41,2.90
2013,10,23,06,42,2.90
2013,10,23,06,43,2.90
2013,10,23,06,44,2.90
2013,10,23,06,45,2.90
2013,10,23,06,46,2.90
2013,10,23,06,47,2.90
2013,10,23,06,48,2.90
2013,10,23,06,49,2.90
2013,10,23,06,50,2.90
2013,10,23,06,51,2.80
2013,10,23,06,52,2.80
2013,10,23,06,53,2.80
2013,10,23,06,54,2.80
2013,10,23,06,55,2.80
2013,10,23,06,56,2.80
2013,10,23,06,57,2.80
2013,10,23,06,58,2.80
2013,10,23,06,59,2.80
2013,10,23,07,00,2.80
2013,10,23,07,01,2.80
2013,10,23,07,02,2.80
2013,10,23,07,03,2.80
2013,10,23,07,04,2.80
2013,10,23,07,05,2.80
2013,10,23,07,06,2.70
2013,10,23,07,07,2.70
2013,10,23,07,08,2.70
2013,10,23,07,09,2.70
2013,10,23,07,10,2.70
2013,10,23,07,11,2.70
2013,10,23,07,12,2.70
2013,10,23,07,13,2.70
2013,10,23,07,14,2.70
2013,10,23,07,15,2.70
2013,10,23,07,16,2.70
2013,10,23,07,17,2.70
2013,10,23,07,18,2.70
2013,10,23,07,19,2.70
2013,10,23,07,20,2.70
2013,10,23,07,21,2.70
2013,10,23,07,22,2.70
2013,10,23,07,23,2.70
2013,10,23,07,24,2.70
2013,10,23,07,25,2.70
2013,10,23,07,26,2.60
2013,10,23,07,27,2.60
2013,10,23,07,28,2.60
2013,10,23,07,29,2.60
2013,10,23,07,30,2.60
2013,10,23,07,31,2.60
2013,10,23,07,32,2.60
2013,10,23,07,33,2.60
2013,10,23,07,34,2.60
2013,10,23,07,35,2.60
2013,10,23,07,36,2.60
2013,10,23,07,37,2.60
2013,10,23,07,38,2.60
2013,10,23,07,39,2.60
2013,10,23,07,40,2.60
2013,10,23,07,41,2.60
2013,10,23,07,42,2.60
2013,10,23,07,43,2.60
2013,10,23,07,44,2.60
2013,10,23,07,45,2.60
2013,10,23,07,46,2.60
2013,10,23,07,47,2.60
2013,10,23,07,48,2.60
2013,10,23,07,49,2.60
2013,10,23,07,50,2.60
2013,10,23,07,51,2.60
2013,10,23,07,52,2.60
2013,10,23,07,53,2.60
2013,10,23,07,54,2.60
2013,10,23,07,55,2.60
2013,10,23,07,56,2.60
2013,10,23,07,57,2.60
2013,10,23,07,58,2.60
2013,10,23,07,59,2.60
2013,10,23,08,00,2.60
2013,10,23,08,01,2.60
2013,10,23,08,02,2.60
2013,10,23,08,03,2.60
2013,10,23,08,04,2.60
2013,10,23,08,05,2.60
2013,10,23,08,06,2.60
2013,10,23,08,07,2.60
2013,10,23,08,08,2.60
2013,10,23,08,09,2.60
2013,10,23,08,10,2.60
2013,10,23,08,11,2.60
2013,10,23,08,12,2.60
2013,10,23,08,13,2.70
2013,10,23,08,14,2.70
2013,10,23,08,15,2.70
2013,10,23,08,16,2.70
2013,10,23,08,17,2.70
2013,10,23,08,18,2.70
2013,10,23,08,19,2.80
2013,10,23,08,20,2.80
2013,10,23,08,21,2.80
2013,10,23,08,22,2.80
2013,10,23,08,23,2.80
2013,10,23,08,24,2.80
2013,10,23,08,25,2.80
2013,10,23,08,26,2.80
2013,10,23,08,27,2.80
2013,10,23,08,28,2.90
2013,10,23,08,29,2.90
2013,10,23,08,30,2.90
2013,10,23,08,31,2.90
2013,10,23,08,32,2.90
2013,10,23,08,33,2.90
2013,10,23,08,34,2.90
2013,10,23,08,35,2.90
2013,10,23,08,36,2.90
2013,10,23,08,37,3.00
2013,10,23,08,38,3.00
2013,10,23,08,39,3.00
2013,10,23,08,40,3.10
2013,10,23,08,41,3.10
2013,10,23,08,42,3.10
2013,10,23,08,43,3.20
2013,10,23,08,44,3.20
2013,10,23,08,45,3.20
2013,10,23,08,46,3.20
2013,10,23,08,47,3.30
2013,10,23,08,48,3.30
2013,10,23,08,49,3.30
2013,10,23,08,50,3.40
2013,10,23,08,51,3.40
2013,10,23,08,52,3.40
2013,10,23,08,53,3.50
2013,10,23,08,54,3.50
2013,10,23,08,55,3.50
2013,10,23,08,56,3.60
2013,10,23,08,57,3.60
2013,10,23,08,58,3.60
2013,10,23,08,59,3.70
2013,10,23,09,00,3.70
2013,10,23,09,01,3.70
2013,10,23,09,02,3.70
2013,10,23,09,03,3.80
2013,10,23,09,04,3.80
2013,10,23,09,05,3.80
2013,10,23,09,06,3.80
2013,10,23,09,07,3.90
2013,10,23,09,08,3.90
2013,10,23,09,09,3.90
2013,10,23,09,10,4.00
2013,10,23,09,11,4.00
2013,10,23,09,12,4.00
2013,10,23,09,13,4.10
2013,10,23,09,14,4.10
2013,10,23,09,15,4.10
2013,10,23,09,16,4.20
2013,10,23,09,17,4.20
2013,10,23,09,18,4.30
2013,10,23,09,19,4.30
2013,10,23,09,20,4.30
2013,10,23,09,21,4.30
2013,10,23,09,22,4.40
2013,10,23,09,23,4.40
2013,10,23,09,24,4.50
2013,10,23,09,25,4.60
2013,10,23,09,26,4.60
2013,10,23,09,27,4.60
2013,10,23,09,28,4.70
2013,10,23,09,29,4.70
2013,10,23,09,30,4.80
2013,10,23,09,31,4.80
2013,10,23,09,32,4.90
2013,10,23,09,33,4.90
2013,10,23,09,34,5.00
2013,10,23,09,35,5.00
2013,10,23,09,36,5.10
2013,10,23,09,37,5.10
2013,10,23,09,38,5.20
2013,10,23,09,39,5.20
2013,10,23,09,40,5.30
2013,10,23,09,41,5.30
2013,10,23,09,42,5.40
2013,10,23,09,43,5.40
2013,10,23,09,44,5.50
2013,10,23,09,45,5.50
2013,10,23,09,46,5.60
2013,10,23,09,47,5.60
2013,10,23,09,48,5.70
2013,10,23,09,49,5.70
2013,10,23,09,50,5.70
2013,10,23,09,51,5.80
2013,10,23,09,52,5.80
2013,10,23,09,53,5.90
2013,10,23,09,54,5.90
2013,10,23,09,55,6.00
2013,10,23,09,56,6.00
2013,10,23,09,57,6.10
2013,10,23,09,58,6.10
2013,10,23,09,59,6.20
2013,10,23,10,00,6.20
2013,10,23,10,01,6.20
2013,10,23,10,02,6.20
2013,10,23,10,03,6.30
2013,10,23,10,04,6.30
2013,10,23,10,05,6.30
2013,10,23,10,06,6.40
2013,10,23,10,07,6.40
2013,10,23,10,08,6.40
2013,10,23,10,09,6.40
2013,10,23,10,10,6.50
2013,10,23,10,11,6.50
2013,10,23,10,12,6.50
2013,10,23,10,13,6.60
2013,10,23,10,14,6.60
2013,10,23,10,15,6.60
2013,10,23,10,16,6.70
2013,10,23,10,17,6.70
2013,10,23,10,18,6.70
2013,10,23,10,19,6.70
2013,10,23,10,20,6.70
2013,10,23,10,21,6.80
2013,10,23,10,22,6.80
2013,10,23,10,23,6.80
2013,10,23,10,24,6.90
2013,10,23,10,25,6.90
2013,10,23,10,26,6.90
2013,10,23,10,27,7.00
2013,10,23,10,28,7.00
2013,10,23,10,29,7.10
2013,10,23,10,30,7.10
2013,10,23,10,31,7.20
2013,10,23,10,32,7.20
2013,10,23,10,33,7.20
2013,10,23,10,34,7.20
2013,10,23,10,35,7.20
2013,10,23,10,36,7.20
2013,10,23,10,37,7.20
2013,10,23,10,38,7.20
2013,10,23,10,39,7.20
2013,10,23,10,40,7.30
2013,10,23,10,41,7.30
2013,10,23,10,42,7.30
2013,10,23,10,43,7.30
2013,10,23,10,44,7.30
2013,10,23,10,45,7.40
2013,10,23,10,46,7.40
2013,10,23,10,47,7.40
2013,10,23,10,48,7.50
2013,10,23,10,49,7.50
2013,10,23,10,50,7.60
2013,10,23,10,51,7.60
2013,10,23,10,52,7.60
2013,10,23,10,53,7.60
2013,10,23,10,54,7.60
2013,10,23,10,55,7.60
2013,10,23,10,56,7.70
2013,10,23,10,57,7.70
2013,10,23,10,58,7.70
2013,10,23,10,59,7.70
2013,10,23,11,00,7.70
2013,10,23,11,01,7.70
2013,10,23,11,02,7.70
2013,10,23,11,03,7.70
2013,10,23,11,04,7.70
2013,10,23,11,05,7.80
2013,10,23,11,06,7.80
2013,10,23,11,07,7.80
2013,10,23,11,08,7.80
2013,10,23,11,09,7.80
2013,10,23,11,10,7.80
2013,10,23,11,11,7.90
2013,10,23,11,12,7.90
2013,10,23,11,13,7.90
2013,10,23,11,14,8.00
2013,10,23,11,15,8.00
2013,10,23,11,16,8.00
2013,10,23,11,17,8.00
2013,10,23,11,18,8.00
2013,10,23,11,19,8.10
2013,10,23,11,20,8.10
2013,10,23,11,21,8.10
2013,10,23,11,22,8.10
2013,10,23,11,23,8.20
2013,10,23,11,24,8.20
2013,10,23,11,25,8.30
2013,10,23,11,26,8.40
2013,10,23,11,27,8.40
2013,10,23,11,28,8.40
2013,10,23,11,29,8.40
2013,10,23,11,30,8.40
2013,10,23,11,31,8.30
2013,10,23,11,32,8.30
2013,10,23,11,33,8.30
2013,10,23,11,34,8.30
2013,10,23,11,35,8.30
2013,10,23,11,36,8.30
2013,10,23,11,37,8.30
2013,10,23,11,38,8.30
2013,10,23,11,39,8.30
2013,10,23,11,40,8.30
2013,10,23,11,41,8.40
2013,10,23,11,42,8.40
2013,10,23,11,43,8.40
2013,10,23,11,44,8.40
2013,10,23,11,45,8.40
2013,10,23,11,46,8.50
2013,10,23,11,47,8.50
2013,10,23,11,48,8.40
2013,10,23,11,49,8.40
2013,10,23,11,50,8.40
2013,10,23,11,51,8.40
2013,10,23,11,52,8.40
2013,10,23,11,53,8.40
2013,10,23,11,54,8.40
2013,10,23,11,55,8.40
2013,10,23,11,56,8.50
2013,10,23,11,57,8.60
2013,10,23,11,58,8.60
2013,10,23,11,59,8.70
2013,10,23,12,00,8.70
2013,10,23,12,01,8.80
2013,10,23,12,02,8.80
2013,10,23,12,03,8.80
2013,10,23,12,04,8.80
2013,10,23,12,05,8.80
2013,10,23,12,06,8.80
2013,10,23,12,07,8.80
2013,10,23,12,08,8.80
2013,10,23,12,09,8.90
2013,10,23,12,10,8.90
2013,10,23,12,11,9.00
2013,10,23,12,12,9.10
2013,10,23,12,13,9.10
2013,10,23,12,14,9.20
2013,10,23,12,15,9.20
2013,10,23,12,16,9.20
2013,10,23,12,17,9.30
2013,10,23,12,18,9.30
2013,10,23,12,19,9.30
2013,10,23,12,20,9.30
2013,10,23,12,21,9.20
2013,10,23,12,22,9.20
2013,10,23,12,23,9.20
2013,10,23,12,24,9.10
2013,10,23,12,25,9.10
2013,10,23,12,26,9.10
2013,10,23,12,27,9.10
2013,10,23,12,28,9.10
2013,10,23,12,29,9.10
2013,10,23,12,30,9.20
2013,10,23,12,31,9.20
2013,10,23,12,32,9.20
2013,10,23,12,33,9.30
2013,10,23,12,34,9.30
2013,10,23,12,35,9.30
2013,10,23,12,36,9.40
2013,10,23,12,37,9.40
2013,10,23,12,38,9.40
2013,10,23,12,39,9.40
2013,10,23,12,40,9.50
2013,10,23,12,41,9.50
2013,10,23,12,42,9.60
2013,10,23,12,43,9.60
2013,10,23,12,44,9.70
2013,10,23,12,45,9.70
2013,10,23,12,46,9.80
2013,10,23,12,47,9.80
2013,10,23,12,48,9.90
2013,10,23,12,49,10.00
2013,10,23,12,50,10.10
2013,10,23,12,51,10.10
2013,10,23,12,52,10.20
2013,10,23,12,53,10.20
2013,10,23,12,54,10.30
2013,10,23,12,55,10.30
2013,10,23,12,56,10.40
2013,10,23,12,57,10.40
2013,10,23,12,58,10.50
2013,10,23,12,59,10.60
2013,10,23,13,00,10.60
2013,10,23,13,01,10.70
2013,10,23,13,02,10.70
2013,10,23,13,03,10.70
2013,10,23,13,04,10.70
2013,10,23,13,05,10.70
2013,10,23,13,06,10.70
2013,10,23,13,07,10.70
2013,10,23,13,08,10.70
2013,10,23,13,09,10.70
2013,10,23,13,10,10.70
2013,10,23,13,11,10.70
2013,10,23,13,12,10.70
2013,10,23,13,13,10.70
2013,10,23,13,14,10.70
2013,10,23,13,15,10.70
2013,10,23,13,16,10.60
2013,10,23,13,17,10.60
2013,10,23,13,18,10.60
2013,10,23,13,19,10.60
2013,10,23,13,20,10.60
2013,10,23,13,21,10.60
2013,10,23,13,22,10.60
2013,10,23,13,23,10.60
2013,10,23,13,24,10.50
2013,10,23,13,25,10.50
2013,10,23,13,26,10.50
2013,10,23,13,27,10.50
2013,10,23,13,28,10.50
2013,10,23,13,29,10.40
2013,10,23,13,30,10.40
2013,10,23,13,31,10.40
2013,10,23,13,32,10.40
2013,10,23,13,33,10.40
2013,10,23,13,34,10.40
2013,10,23,13,35,10.40
2013,10,23,13,36,10.40
2013,10,23,13,37,10.40
2013,10,23,13,38,10.40
2013,10,23,13,39,10.40
2013,10,23,13,40,10.40
2013,10,23,13,41,10.50
2013,10,23,13,42,10.40
2013,10,23,13,43,10.40
2013,10,23,13,44,10.40
2013,10,23,13,45,10.50
2013,10,23,13,46,10.50
2013,10,23,13,47,10.50
2013,10,23,13,48,10.60
2013,10,23,13,49,10.60
2013,10,23,13,50,10.60
2013,10,23,13,51,10.60
2013,10,23,13,52,10.70
2013,10,23,13,53,10.70
2013,10,23,13,54,10.80
2013,10,23,13,55,10.80
2013,10,23,13,56,10.80
2013,10,23,13,57,10.80
2013,10,23,13,58,10.70
2013,10,23,13,59,10.80
2013,10,23,14,00,10.80
2013,10,23,14,01,10.80
2013,10,23,14,02,10.80
2013,10,23,14,03,10.80
2013,10,23,14,04,10.80
2013,10,23,14,05,10.90
2013,10,23,14,06,10.90
2013,10,23,14,07,10.90
2013,10,23,14,08,11.00
2013,10,23,14,09,11.00
2013,10,23,14,10,11.10
2013,10,23,14,11,11.10
2013,10,23,14,12,11.20
2013,10,23,14,13,11.30
2013,10,23,14,14,11.30
2013,10,23,14,15,11.30
2013,10,23,14,16,11.40
2013,10,23,14,17,11.40
2013,10,23,14,18,11.40
2013,10,23,14,19,11.50
2013,10,23,14,20,11.50
2013,10,23,14,21,11.50
2013,10,23,14,22,11.50
2013,10,23,14,23,11.50
2013,10,23,14,24,11.50
2013,10,23,14,25,11.60
2013,10,23,14,26,11.60
2013,10,23,14,27,11.60
2013,10,23,14,28,11.60
2013,10,23,14,29,11.70
2013,10,23,14,30,11.70
2013,10,23,14,31,11.70
2013,10,23,14,32,11.70
2013,10,23,14,33,11.80
2013,10,23,14,34,11.80
2013,10,23,14,35,11.80
2013,10,23,14,36,11.90
2013,10,23,14,37,11.90
2013,10,23,14,38,11.90
2013,10,23,14,39,12.00
2013,10,23,14,40,12.10
2013,10,23,14,41,12.10
2013,10,23,14,42,12.10
2013,10,23,14,43,12.10
2013,10,23,14,44,12.20
2013,10,23,14,45,12.20
2013,10,23,14,46,12.20
2013,10,23,14,47,12.30
2013,10,23,14,48,12.30
2013,10,23,14,49,12.30
2013,10,23,14,50,12.30
2013,10,23,14,51,12.30
2013,10,23,14,52,12.40
2013,10,23,14,53,12.40
2013,10,23,14,54,12.40
2013,10,23,14,55,12.30
2013,10,23,14,56,12.30
2013,10,23,14,57,12.30
2013,10,23,14,58,12.30
2013,10,23,14,59,12.30
2013,10,23,15,00,12.30
2013,10,23,15,01,12.30
2013,10,23,15,02,12.30
2013,10,23,15,03,12.30
2013,10,23,15,04,12.30
2013,10,23,15,05,12.40
2013,10,23,15,06,12.40
2013,10,23,15,07,12.40
2013,10,23,15,08,12.50
2013,10,23,15,09,12.50
2013,10,23,15,10,12.50
2013,10,23,15,11,12.50
2013,10,23,15,12,12.60
2013,10,23,15,13,12.60
2013,10,23,15,14,12.60
2013,10,23,15,15,12.60
2013,10,23,15,16,12.50
2013,10,23,15,17,12.50
2013,10,23,15,18,12.40
2013,10,23,15,19,12.40
2013,10,23,15,20,12.40
2013,10,23,15,21,12.40
2013,10,23,15,22,12.40
2013,10,23,15,23,12.30
2013,10,23,15,24,12.30
2013,10,23,15,25,12.30
2013,10,23,15,26,12.20
2013,10,23,15,27,12.20
2013,10,23,15,28,12.10
2013,10,23,15,29,12.00
2013,10,23,15,30,12.00
2013,10,23,15,31,11.90
2013,10,23,15,32,11.80
2013,10,23,15,33,11.70
2013,10,23,15,34,11.70
2013,10,23,15,35,11.60
2013,10,23,15,36,11.50
2013,10,23,15,37,11.40
2013,10,23,15,38,11.40
2013,10,23,15,39,11.30
2013,10,23,15,40,11.30
2013,10,23,15,41,11.30
2013,10,23,15,42,11.20
2013,10,23,15,43,11.20
2013,10,23,15,44,11.10
2013,10,23,15,45,11.10
2013,10,23,15,46,11.10
2013,10,23,15,47,11.00
2013,10,23,15,48,11.00
2013,10,23,15,49,11.00
2013,10,23,15,50,11.00
2013,10,23,15,51,11.00
2013,10,23,15,52,11.00
2013,10,23,15,53,11.00
2013,10,23,15,54,11.00
2013,10,23,15,55,11.10
2013,10,23,15,56,11.10
2013,10,23,15,57,11.00
2013,10,23,15,58,11.00
2013,10,23,15,59,11.00
2013,10,23,16,00,11.00
2013,10,23,16,01,11.00
2013,10,23,16,02,11.00
2013,10,23,16,03,11.00
2013,10,23,16,04,11.00
2013,10,23,16,05,11.00
2013,10,23,16,06,11.00
2013,10,23,16,07,11.00
2013,10,23,16,08,11.00
2013,10,23,16,09,11.00
2013,10,23,16,10,11.00
2013,10,23,16,11,11.00
2013,10,23,16,12,11.00
2013,10,23,16,13,11.00
2013,10,23,16,14,11.00
2013,10,23,16,15,11.00
2013,10,23,16,16,11.10
2013,10,23,16,17,11.10
2013,10,23,16,18,11.10
2013,10,23,16,19,11.10
2013,10,23,16,20,11.10
2013,10,23,16,21,11.10
2013,10,23,16,22,11.10
2013,10,23,16,23,11.10
2013,10,23,16,24,11.10
2013,10,23,16,25,11.00
2013,10,23,16,26,11.00
2013,10,23,16,27,11.00
2013,10,23,16,28,11.00
2013,10,23,16,29,11.00
2013,10,23,16,30,11.00
2013,10,23,16,31,11.10
2013,10,23,16,32,11.10
2013,10,23,16,33,11.10
2013,10,23,16,34,11.10
2013,10,23,16,35,11.10
2013,10,23,16,36,11.10
2013,10,23,16,37,11.10
2013,10,23,16,38,11.10
2013,10,23,16,39,11.10
2013,10,23,16,40,11.10
2013,10,23,16,41,11.10
2013,10,23,16,42,11.10
2013,10,23,16,43,11.10
2013,10,23,16,44,11.20
2013,10,23,16,45,11.20
2013,10,23,16,46,11.20
2013,10,23,16,47,11.20
2013,10,23,16,48,11.20
2013,10,23,16,49,11.20
2013,10,23,16,50,11.30
2013,10,23,16,51,11.30
2013,10,23,16,52,11.30
2013,10,23,16,53,11.30
2013,10,23,16,54,11.30
2013,10,23,16,55,11.30
2013,10,23,16,56,11.30
2013,10,23,16,57,11.30
2013,10,23,16,58,11.30
2013,10,23,16,59,11.30
2013,10,23,17,00,11.30
2013,10,23,17,01,11.30
2013,10,23,17,02,11.30
2013,10,23,17,03,11.30
2013,10,23,17,04,11.30
2013,10,23,17,05,11.20
2013,10,23,17,06,11.20
2013,10,23,17,07,11.20
2013,10,23,17,08,11.20
2013,10,23,17,09,11.20
2013,10,23,17,10,11.20
2013,10,23,17,11,11.20
2013,10,23,17,12,11.20
2013,10,23,17,13,11.10
2013,10,23,17,14,11.10
2013,10,23,17,15,11.10
2013,10,23,17,16,11.10
2013,10,23,17,17,11.10
2013,10,23,17,18,11.10
2013,10,23,17,19,11.10
2013,10,23,17,20,11.10
2013,10,23,17,21,11.10
2013,10,23,17,22,11.10
2013,10,23,17,23,11.00
2013,10,23,17,24,11.00
2013,10,23,17,25,11.00
2013,10,23,17,26,11.00
2013,10,23,17,27,10.90
2013,10,23,17,28,10.90
2013,10,23,17,29,10.90
2013,10,23,17,30,10.90
2013,10,23,17,31,10.90
2013,10,23,17,32,10.80
2013,10,23,17,33,10.80
2013,10,23,17,34,10.80
2013,10,23,17,35,10.80
2013,10,23,17,36,10.80
2013,10,23,17,37,10.80
2013,10,23,17,38,10.80
2013,10,23,17,39,10.70
2013,10,23,17,40,10.70
2013,10,23,17,41,10.70
2013,10,23,17,42,10.70
2013,10,23,17,43,10.60
2013,10,23,17,44,10.60
2013,10,23,17,45,10.60
2013,10,23,17,46,10.60
2013,10,23,17,47,10.50
2013,10,23,17,48,10.50
2013,10,23,17,49,10.50
2013,10,23,17,50,10.40
2013,10,23,17,51,10.40
2013,10,23,17,52,10.40